Time,TemperatureF,DewpointF,PressureIn,WindDirection,WindDirectionDegrees,WindSpeedMPH,WindSpeedGustMPH,Humidity,HourlyPrecipIn,Conditions,Clouds,dailyrainin,SolarRadiationWatts/m^2,SoftwareType,DateUTC
2013-05-22 00:03:00,67.2,62.0,29.93,NNE,14,0.0,6.0,82,0.00,,,0.00,0,weatherlink.com 1.10,2013-05-22 04:03:00,
2013-05-22 00:18:00,65.9,62.0,29.92,NNW,338,3.0,4.0,86,0.00,,,0.00,0,weatherlink.com 1.10,2013-05-22 04:18:00,
2013-05-22 00:33:00,65.5,61.0,29.94,WSW,255,1.0,2.0,86,0.00,,,0.00,0,weatherlink.com 1.10,2013-05-22 04:33:00,
2013-05-22 00:49:00,67.0,62.0,29.96,SSE,165,2.0,8.0,83,0.00,,,0.00,0,weatherlink.com 1.10,2013-05-22 04:49:00,
2013-05-22 01:04:00,66.8,62.0,29.95,ENE,62,0.0,4.0,84,0.00,,,0.00,0,weatherlink.com 1.10,2013-05-22 05:04:00,
2013-05-22 01:19:00,66.5,63.0,29.95,SW,222,1.0,3.0,87,0.00,,,0.00,0,weatherlink.com 1.10,2013-05-22 05:19:00,
2013-05-22 01:34:00,66.3,62.0,29.95,North,5,1.0,3.0,87,0.00,,,0.00,0,weatherlink.com 1.10,2013-05-22 05:34:00,
2013-05-22 01:49:00,65.8,62.0,29.95,ENE,57,1.0,2.0,88,0.00,,,0.00,0,weatherlink.com 1.10,2013-05-22 05:49:00,
2013-05-22 02:04:00,65.4,62.0,29.93,ESE,105,2.0,7.0,87,0.00,,,0.00,0,weatherlink.com 1.10,2013-05-22 06:04:00,
2013-05-22 02:19:00,64.9,61.0,29.92,East,83,0.0,4.0,88,0.00,,,0.00,0,weatherlink.com 1.10,2013-05-22 06:19:00,
2013-05-22 02:34:00,64.9,61.0,29.91,NNW,347,0.0,3.0,88,0.00,,,0.00,0,weatherlink.com 1.10,2013-05-22 06:34:00,
2013-05-22 02:49:00,64.8,62.0,29.89,South,186,6.0,7.0,89,0.00,,,0.00,0,weatherlink.com 1.10,2013-05-22 06:49:00,
2013-05-22 03:04:00,65.2,62.0,29.89,SSW,211,4.0,8.0,89,0.00,,,0.00,0,weatherlink.com 1.10,2013-05-22 07:04:00,
2013-05-22 03:19:00,65.4,62.0,29.88,SW,236,5.0,7.0,87,0.00,,,0.00,0,weatherlink.com 1.10,2013-05-22 07:19:00,
2013-05-22 03:34:00,65.1,61.0,29.87,North,350,0.0,5.0,87,0.00,,,0.00,0,weatherlink.com 1.10,2013-05-22 07:34:00,
2013-05-22 03:49:00,63.3,60.0,29.88,North,350,3.0,4.0,89,0.00,,,0.00,0,weatherlink.com 1.10,2013-05-22 07:49:00,
2013-05-22 04:04:00,62.6,60.0,29.88,North,349,1.0,3.0,92,0.00,,,0.00,0,weatherlink.com 1.10,2013-05-22 08:04:00,
2013-05-22 04:19:00,62.3,60.0,29.89,North,349,0.0,4.0,91,0.00,,,0.00,0,weatherlink.com 1.10,2013-05-22 08:19:00,
2013-05-22 04:34:00,62.0,60.0,29.89,ENE,64,0.0,2.0,94,0.00,,,0.00,0,weatherlink.com 1.10,2013-05-22 08:34:00,
2013-05-22 04:49:00,62.2,61.0,29.90,ENE,64,0.0,1.0,94,0.00,,,0.00,0,weatherlink.com 1.10,2013-05-22 08:49:00,
2013-05-22 05:04:00,62.2,60.0,29.89,ENE,64,0.0,2.0,93,0.00,,,0.00,0,weatherlink.com 1.10,2013-05-22 09:04:00,
2013-05-22 05:19:00,62.1,60.0,29.89,ENE,64,0.0,0.0,93,0.00,,,0.00,0,weatherlink.com 1.10,2013-05-22 09:19:00,
2013-05-22 05:34:00,62.0,60.0,29.90,ENE,64,1.0,1.0,94,0.00,,,0.00,0,weatherlink.com 1.10,2013-05-22 09:34:00,
2013-05-22 05:49:00,61.5,60.0,29.90,NNW,344,1.0,3.0,94,0.00,,,0.00,0,weatherlink.com 1.10,2013-05-22 09:49:00,
2013-05-22 06:04:00,61.9,61.0,29.90,NNW,344,0.0,0.0,95,0.00,,,0.00,0,weatherlink.com 1.10,2013-05-22 10:04:00,
2013-05-22 06:19:00,61.4,59.0,29.90,ENE,77,0.0,2.0,93,0.00,,,0.00,0,weatherlink.com 1.10,2013-05-22 10:19:00,
2013-05-22 06:34:00,61.1,60.0,29.91,North,5,0.0,3.0,95,0.00,,,0.00,5,weatherlink.com 1.10,2013-05-22 10:34:00,
2013-05-22 06:49:00,61.5,60.0,29.91,NW,306,1.0,2.0,95,0.00,,,0.00,9,weatherlink.com 1.10,2013-05-22 10:49:00,
2013-05-22 07:04:00,62.0,61.0,29.91,NNW,334,0.0,2.0,95,0.00,,,0.00,21,weatherlink.com 1.10,2013-05-22 11:04:00,
2013-05-22 07:19:00,62.2,61.0,29.91,SSW,209,1.0,2.0,95,0.00,,,0.00,30,weatherlink.com 1.10,2013-05-22 11:19:00,
2013-05-22 07:34:00,62.7,61.0,29.91,North,360,0.0,1.0,95,0.00,,,0.00,60,weatherlink.com 1.10,2013-05-22 11:34:00,
2013-05-22 07:49:00,63.4,62.0,29.91,NNW,340,1.0,2.0,96,0.00,,,0.00,109,weatherlink.com 1.10,2013-05-22 11:49:00,
2013-05-22 08:04:00,64.2,63.0,29.92,WNW,294,0.0,3.0,95,0.00,,,0.00,118,weatherlink.com 1.10,2013-05-22 12:04:00,
2013-05-22 08:19:00,65.0,63.0,29.92,East,93,0.0,2.0,94,0.00,,,0.00,139,weatherlink.com 1.10,2013-05-22 12:19:00,
2013-05-22 08:34:00,67.4,65.0,29.92,East,86,0.0,1.0,93,0.00,,,0.00,220,weatherlink.com 1.10,2013-05-22 12:34:00,
2013-05-22 08:49:00,68.5,65.0,29.92,South,188,0.0,3.0,87,0.00,,,0.00,195,weatherlink.com 1.10,2013-05-22 12:49:00,
2013-05-22 09:04:00,69.1,65.0,29.92,SSE,163,0.0,4.0,87,0.00,,,0.00,248,weatherlink.com 1.10,2013-05-22 13:04:00,
2013-05-22 09:20:00,70.0,65.0,29.92,SSW,202,1.0,2.0,85,0.00,,,0.00,199,weatherlink.com 1.10,2013-05-22 13:20:00,
2013-05-22 09:35:00,70.8,65.0,29.92,SW,221,1.0,3.0,83,0.00,,,0.00,471,weatherlink.com 1.10,2013-05-22 13:35:00,
2013-05-22 09:50:00,72.8,67.0,29.92,ENE,65,1.0,2.0,81,0.00,,,0.00,508,weatherlink.com 1.10,2013-05-22 13:50:00,
2013-05-22 10:05:00,73.1,66.0,29.93,NNW,340,2.0,3.0,78,0.00,,,0.00,213,weatherlink.com 1.10,2013-05-22 14:05:00,
2013-05-22 10:20:00,72.7,66.0,29.92,NNE,23,2.0,5.0,78,0.00,,,0.00,427,weatherlink.com 1.10,2013-05-22 14:20:00,
2013-05-22 10:35:00,74.2,67.0,29.91,ENE,66,2.0,5.0,78,0.00,,,0.00,693,weatherlink.com 1.10,2013-05-22 14:35:00,
2013-05-22 10:50:00,74.8,66.0,29.91,SE,146,0.0,6.0,75,0.00,,,0.00,745,weatherlink.com 1.10,2013-05-22 14:50:00,
2013-05-22 11:05:00,76.1,67.0,29.91,WSW,253,0.0,4.0,73,0.00,,,0.00,738,weatherlink.com 1.10,2013-05-22 15:05:00,
2013-05-22 11:20:00,76.1,66.0,29.91,SSE,148,0.0,4.0,71,0.00,,,0.00,773,weatherlink.com 1.10,2013-05-22 15:20:00,
2013-05-22 11:35:00,76.9,68.0,29.91,SW,217,1.0,3.0,73,0.00,,,0.00,803,weatherlink.com 1.10,2013-05-22 15:35:00,
2013-05-22 11:50:00,77.3,66.0,29.91,ESE,102,0.0,6.0,69,0.00,,,0.00,842,weatherlink.com 1.10,2013-05-22 15:50:00,
2013-05-22 12:05:00,78.4,67.0,29.91,South,169,1.0,3.0,69,0.00,,,0.00,886,weatherlink.com 1.10,2013-05-22 16:05:00,
2013-05-22 12:20:00,78.7,68.0,29.90,SW,217,0.0,4.0,70,0.00,,,0.00,896,weatherlink.com 1.10,2013-05-22 16:20:00,
2013-05-22 12:35:00,78.9,67.0,29.90,NW,320,0.0,3.0,67,0.00,,,0.00,332,weatherlink.com 1.10,2013-05-22 16:35:00,
2013-05-22 12:50:00,79.7,67.0,29.89,NNW,336,0.0,5.0,66,0.00,,,0.00,979,weatherlink.com 1.10,2013-05-22 16:50:00,
2013-05-22 13:05:00,78.7,68.0,29.89,North,351,0.0,3.0,69,0.00,,,0.00,230,weatherlink.com 1.10,2013-05-22 17:05:00,
2013-05-22 13:20:00,79.5,67.0,29.87,SW,219,1.0,3.0,66,0.00,,,0.00,234,weatherlink.com 1.10,2013-05-22 17:20:00,
2013-05-22 13:35:00,79.4,67.0,29.87,WNW,292,2.0,5.0,67,0.00,,,0.00,1162,weatherlink.com 1.10,2013-05-22 17:35:00,
2013-05-22 13:50:00,77.8,65.0,29.87,West,280,2.0,12.0,65,0.00,,,0.00,369,weatherlink.com 1.10,2013-05-22 17:50:00,
2013-05-22 14:05:00,78.1,66.0,29.87,NNW,340,2.0,5.0,67,0.00,,,0.00,234,weatherlink.com 1.10,2013-05-22 18:05:00,
2013-05-22 14:20:00,77.9,66.0,29.86,East,101,0.0,2.0,67,0.00,,,0.00,315,weatherlink.com 1.10,2013-05-22 18:20:00,
2013-05-22 14:35:00,78.7,67.0,29.86,North,5,1.0,3.0,67,0.00,,,0.00,1032,weatherlink.com 1.10,2013-05-22 18:35:00,
2013-05-22 14:50:00,79.1,67.0,29.84,NNW,346,3.0,4.0,67,0.00,,,0.00,218,weatherlink.com 1.10,2013-05-22 18:50:00,
2013-05-22 15:05:00,79.5,66.0,29.84,South,188,3.0,10.0,64,0.00,,,0.00,250,weatherlink.com 1.10,2013-05-22 19:05:00,
2013-05-22 15:20:00,78.0,67.0,29.83,SSW,194,3.0,13.0,70,0.01,,,0.01,791,weatherlink.com 1.10,2013-05-22 19:20:00,
2013-05-22 15:35:00,79.7,64.0,29.83,South,171,8.0,9.0,60,0.01,,,0.01,919,weatherlink.com 1.10,2013-05-22 19:35:00,
2013-05-22 15:51:00,81.2,62.0,29.83,SW,225,4.0,11.0,52,0.01,,,0.01,689,weatherlink.com 1.10,2013-05-22 19:51:00,
2013-05-22 16:06:00,80.5,65.0,29.82,SW,215,3.0,9.0,59,0.01,,,0.01,747,weatherlink.com 1.10,2013-05-22 20:06:00,
2013-05-22 16:21:00,80.7,62.0,29.82,South,173,7.0,9.0,54,0.00,,,0.01,415,weatherlink.com 1.10,2013-05-22 20:21:00,
2013-05-22 16:36:00,80.5,65.0,29.81,SSW,196,4.0,10.0,59,0.00,,,0.01,805,weatherlink.com 1.10,2013-05-22 20:36:00,
2013-05-22 16:51:00,79.9,64.0,29.80,SSW,197,7.0,10.0,58,0.00,,,0.01,213,weatherlink.com 1.10,2013-05-22 20:51:00,
2013-05-22 17:06:00,78.9,63.0,29.80,SSE,163,5.0,10.0,59,0.00,,,0.01,304,weatherlink.com 1.10,2013-05-22 21:06:00,
2013-05-22 17:21:00,80.9,65.0,29.80,South,181,2.0,11.0,58,0.00,,,0.01,703,weatherlink.com 1.10,2013-05-22 21:21:00,
2013-05-22 17:36:00,79.9,66.0,29.80,South,187,12.0,14.0,63,0.00,,,0.01,350,weatherlink.com 1.10,2013-05-22 21:36:00,
2013-05-22 17:51:00,79.8,67.0,29.80,East,83,3.0,9.0,64,0.00,,,0.01,601,weatherlink.com 1.10,2013-05-22 21:51:00,
2013-05-22 18:06:00,78.6,64.0,29.81,SW,226,3.0,11.0,62,0.00,,,0.01,355,weatherlink.com 1.10,2013-05-22 22:06:00,
2013-05-22 18:21:00,77.6,65.0,29.81,East,90,5.0,7.0,66,0.00,,,0.01,116,weatherlink.com 1.10,2013-05-22 22:21:00,
2013-05-22 18:36:00,76.2,65.0,29.80,SSE,158,6.0,6.0,69,0.00,,,0.01,42,weatherlink.com 1.10,2013-05-22 22:36:00,
2013-05-22 18:51:00,75.6,65.0,29.81,SE,139,3.0,5.0,70,0.00,,,0.01,35,weatherlink.com 1.10,2013-05-22 22:51:00,
2013-05-22 19:06:00,75.4,66.0,29.81,South,182,2.0,3.0,72,0.00,,,0.01,26,weatherlink.com 1.10,2013-05-22 23:06:00,
2013-05-22 19:21:00,70.9,63.0,29.84,South,169,12.0,26.0,77,0.06,,,0.07,16,weatherlink.com 1.10,2013-05-22 23:21:00,
2013-05-22 19:36:00,65.8,61.0,29.83,SSE,157,1.0,10.0,83,0.34,,,0.35,113,weatherlink.com 1.10,2013-05-22 23:36:00,
2013-05-22 19:51:00,65.6,62.0,29.83,SSE,167,0.0,3.0,87,0.39,,,0.40,107,weatherlink.com 1.10,2013-05-22 23:51:00,
2013-05-22 20:06:00,65.4,63.0,29.83,East,92,2.0,2.0,90,0.39,,,0.40,28,weatherlink.com 1.10,2013-05-23 00:06:00,
2013-05-22 20:21:00,64.3,61.0,29.84,NNE,31,2.0,3.0,89,0.31,,,0.40,7,weatherlink.com 1.10,2013-05-23 00:21:00,
2013-05-22 20:36:00,63.8,62.0,29.84,WSW,253,0.0,3.0,92,0.03,,,0.40,5,weatherlink.com 1.10,2013-05-23 00:36:00,
2013-05-22 20:51:00,63.2,61.0,29.85,East,94,0.0,2.0,92,0.00,,,0.40,0,weatherlink.com 1.10,2013-05-23 00:51:00,
2013-05-22 21:06:00,63.0,61.0,29.85,East,94,0.0,2.0,93,0.00,,,0.40,0,weatherlink.com 1.10,2013-05-23 01:06:00,
2013-05-22 21:21:00,62.9,61.0,29.86,East,84,0.0,2.0,94,0.00,,,0.40,0,weatherlink.com 1.10,2013-05-23 01:21:00,
2013-05-22 21:36:00,63.1,62.0,29.86,East,84,0.0,1.0,95,0.00,,,0.40,0,weatherlink.com 1.10,2013-05-23 01:36:00,
2013-05-22 21:51:00,62.8,61.0,29.87,East,84,1.0,1.0,94,0.00,,,0.40,0,weatherlink.com 1.10,2013-05-23 01:51:00,
2013-05-22 22:06:00,62.8,61.0,29.87,East,84,0.0,3.0,95,0.00,,,0.40,0,weatherlink.com 1.10,2013-05-23 02:06:00,
2013-05-22 22:21:00,62.9,62.0,29.87,East,84,0.0,2.0,95,0.00,,,0.40,0,weatherlink.com 1.10,2013-05-23 02:21:00,
2013-05-22 22:36:00,62.9,62.0,29.88,East,84,1.0,2.0,95,0.00,,,0.40,0,weatherlink.com 1.10,2013-05-23 02:36:00,
2013-05-22 22:51:00,62.5,61.0,29.88,East,84,0.0,1.0,95,0.00,,,0.40,0,weatherlink.com 1.10,2013-05-23 02:51:00,
2013-05-22 23:21:00,62.1,61.0,29.88,East,84,0.0,2.0,96,0.00,,,0.40,0,weatherlink.com 1.10,2013-05-23 03:21:00,
2013-05-22 23:36:00,62.3,61.0,29.89,East,84,0.0,0.0,96,0.00,,,0.40,0,weatherlink.com 1.10,2013-05-23 03:36:00,
2013-05-22 23:51:00,62.6,62.0,29.88,East,84,0.0,0.0,96,0.00,,,0.40,0,weatherlink.com 1.10,2013-05-23 03:51:00,